TimeEDT,TemperatureF,Dew PointF,Humidity,Sea Level PressureIn,VisibilityMPH,Wind Direction,Wind SpeedMPH,Gust SpeedMPH,PrecipitationIn,Events,Conditions,WindDirDegrees,DateUTC
12:56 AM,45.0,30.9,58,30.06,10.0,NW,10.4,-,N/A,,Overcast,310,2013-03-30 04:56:00
1:56 AM,44.1,30.9,60,30.07,10.0,NW,10.4,-,N/A,,Overcast,310,2013-03-30 05:56:00
2:56 AM,43.0,30.9,62,30.06,10.0,NW,9.2,-,N/A,,Overcast,320,2013-03-30 06:56:00
3:56 AM,43.0,30.9,62,30.07,10.0,NW,8.1,-,N/A,,Overcast,310,2013-03-30 07:56:00
4:56 AM,42.1,30.9,65,30.07,10.0,NW,8.1,-,N/A,,Overcast,320,2013-03-30 08:56:00
5:56 AM,39.9,30.0,68,30.07,10.0,NNW,9.2,-,N/A,,Clear,330,2013-03-30 09:56:00
6:56 AM,37.0,30.0,76,30.09,10.0,NNW,4.6,-,N/A,,Clear,330,2013-03-30 10:56:00
7:56 AM,42.1,30.9,65,30.10,10.0,NNW,8.1,-,N/A,,Clear,330,2013-03-30 11:56:00
8:56 AM,46.0,30.9,56,30.11,10.0,NNW,8.1,-,N/A,,Clear,330,2013-03-30 12:56:00
9:56 AM,48.9,28.0,44,30.10,10.0,WNW,9.2,-,N/A,,Clear,300,2013-03-30 13:56:00
10:56 AM,53.1,24.1,32,30.09,10.0,North,12.7,18.4,N/A,,Clear,360,2013-03-30 14:56:00
11:56 AM,53.1,21.0,29,30.08,10.0,NNW,8.1,19.6,N/A,,Partly Cloudy,330,2013-03-30 15:56:00
12:56 PM,55.0,18.0,23,30.07,10.0,NNW,12.7,18.4,N/A,,Clear,330,2013-03-30 16:56:00
1:56 PM,51.1,35.1,54,30.06,10.0,WSW,15.0,20.7,N/A,,Partly Cloudy,240,2013-03-30 17:56:00
2:56 PM,50.0,30.9,48,30.04,10.0,WSW,17.3,25.3,N/A,,Scattered Clouds,240,2013-03-30 18:56:00
3:56 PM,50.0,30.9,48,30.03,10.0,WSW,17.3,23.0,N/A,,Partly Cloudy,240,2013-03-30 19:56:00
4:56 PM,50.0,28.0,43,30.03,10.0,WSW,16.1,-,N/A,,Clear,240,2013-03-30 20:56:00
5:56 PM,51.1,24.1,35,30.04,10.0,WSW,12.7,-,N/A,,Clear,250,2013-03-30 21:56:00
6:56 PM,48.9,26.1,41,30.05,10.0,WSW,10.4,-,N/A,,Clear,250,2013-03-30 22:56:00
7:56 PM,46.0,28.0,50,30.07,10.0,WSW,5.8,-,N/A,,Clear,250,2013-03-30 23:56:00
8:56 PM,43.0,35.1,74,30.10,10.0,WSW,12.7,16.1,N/A,,Clear,250,2013-03-31 00:56:00
9:56 PM,43.0,33.1,68,30.12,10.0,West,8.1,-,N/A,,Clear,260,2013-03-31 01:56:00
10:56 PM,42.1,34.0,73,30.12,10.0,West,6.9,-,N/A,,Clear,260,2013-03-31 02:56:00
11:56 PM,37.9,33.1,83,30.12,10.0,Calm,Calm,-,N/A,,Clear,0,2013-03-31 03:56:00